[[{"header":{"parameterUnit":"m.s-1","parameterCategory":2,"la1":30.2992,"la2":30.254,"lo1":-89.0895,"lo2":-89.0443,"dy":0.0025,"dx":0.0025,"nx":19,"ny":19,"refTime":"2026-05-17T03:00:00:Z","depth":"0","parameterNumber":2,"parameterNumberName":"U-component_of_CURRENTS"},"data":[0,0,0,0.3689,0.3692,0.3825,0.3825,0.3963,0.3964,0,0,0,0,0,0,0,0,0,0,0,0.3635,0.3636,0.3689,0.3693,0.3825,0.3825,0.3963,0.3964,0,0,0,0,0,0,0,0,0,0,0,0.3634,0.3635,0.3637,0.3693,0.3825,0.3825,0.3962,0.3868,0,0,0,0,0,0,0,0,0,0,0.3743,0.369,0.3635,0.3637,0.3694,0.3825,0.3825,0.3864,0.3874,0.3897,0,0.3921,0,0.3954,0.3973,0.3974,0,0,0,0.3684,0.3682,0.3731,0.3637,0.3695,0.3825,0.3763,0.387,0.3881,0.391,0.3924,0.3929,0.3957,0.3974,0.3975,0.4246,0.4248,0,0,0.3677,0.3646,0.3724,0.3739,0.3736,0.3759,0.3767,0.3877,0.3883,0.3924,0.3933,0.3959,0.3975,0.3976,0.4244,0.4246,0,0,0,0.3662,0.364,0.3687,0.3732,0.3764,0.3763,0.3772,0.3877,0.3897,0.3935,0.3961,0.3976,0.3978,0.4242,0.4245,0.439,0,0,0,0.3657,0.3633,0.3684,0.3665,0.3762,0.3825,0.3769,0.3889,0.3903,0.396,0.3976,0.3979,0.424,0.4243,0.4382,0.447,0,0,0,0.3628,0.3629,0.3649,0.3663,0.3727,0.3824,0.385,0.3893,0.392,0.3974,0.398,0.4238,0.4243,0.4374,0.4456,0.4554,0,0,0,0.3584,0.361,0.3648,0.369,0.3726,0.3846,0.385,0.3907,0.395,0.3977,0.424,0.4245,0.4372,0.4448,0.4546,0.4534,0.4571,0,0,0.3591,0.361,0.3637,0.3676,0.3795,0.3827,0.3998,0.4031,0.4042,0.4194,0.4201,0.4385,0.4456,0.4552,0.4799,0.4827,0,0,0,0.3623,0.3656,0.3693,0.3775,0.3861,0.4033,0.4072,0.4144,0.4299,0.4096,0.4438,0.4479,0.4534,0.4512,0.4536,0.4521,0.4266,0.4265,0.4265,0.36,0.3673,0.3773,0.39,0.3994,0.4174,0.4328,0.4458,0.4406,0.4518,0.4636,0.4866,0.4847,0.4865,0.4852,0.4667,0.4667,0.4668,0.4668,0.3679,0.3769,0.3886,0.4013,0.4199,0.4358,0.4626,0.4672,0.4934,0.484,0.4885,0.4715,0.49,0.4876,0.4678,0.4676,0.4675,0.4674,0.4673,0.3728,0.3788,0.3877,0.4057,0.4274,0.4466,0.4715,0.4903,0.507,0.5195,0.5118,0.5114,0.5056,0.5186,0.5187,0.5188,0.5189,0.5189,0.519,0.3744,0.3846,0.391,0.4082,0.4176,0.438,0.474,0.4935,0.5205,0.5316,0.5314,0.5164,0.5024,0.4962,0.5204,0.5201,0.5199,0.5198,0.5197,0.379,0.3786,0.3868,0.3933,0.411,0.4201,0.4559,0.4951,0.5211,0.535,0.5439,0.5373,0.5323,0.5301,0.5247,0.5548,0.5548,0.5548,0.5548,0.3751,0.3776,0.3803,0.3847,0.3961,0.4118,0.4316,0.4729,0.5257,0.5497,0.5579,0.545,0.5436,0.5384,0.5361,0.5303,0.5613,0.5613,0.5613,0.3717,0.3739,0.3705,0.3752,0.3863,0.3993,0.4067,0.4378,0.5221,0.5614,0.5578,0.5576,0.5376,0.5355,0.5253,0.522,0.5116,0,0]},{"header":{"parameterUnit":"m.s-1","parameterCategory":2,"la1":30.2992,"la2":30.254,"lo1":-89.0895,"lo2":-89.0443,"dy":0.0025,"dx":0.0025,"nx":19,"ny":19,"refTime":"2026-05-17T03:00:00:Z","depth":"0","parameterNumber":3,"parameterNumberName":"V-component_of_CURRENTS"},"data":[0,0,0,0.0114,0.0113,0.0017,0.0016,-0.0117,-0.0118,0,0,0,0,0,0,0,0,0,0,0,0.0149,0.0149,0.0114,0.0113,0.0017,0.0016,-0.0117,-0.0118,0,0,0,0,0,0,0,0,0,0,0,0.0149,0.0149,0.0149,0.0112,0.0017,0.0016,-0.0116,-0.0047,0,0,0,0,0,0,0,0,0,0,0.0045,0.0089,0.0149,0.0149,0.0112,0.0017,0.0016,-0.0044,-0.0051,-0.0069,0,-0.0067,0,-0.0086,-0.0125,-0.0125,0,0,0,0.009,0.0095,0.0072,0.0149,0.0112,0.0018,0.0054,-0.0048,-0.0057,-0.0079,-0.0069,-0.0074,-0.0089,-0.0125,-0.0126,-0.001,-0.0008,0,0,0.0095,0.0123,0.0078,0.0068,0.0108,0.0057,0.0051,-0.0053,-0.0055,-0.007,-0.0078,-0.0091,-0.0126,-0.0127,-0.0012,-0.001,0,0,0,0.0126,0.0127,0.0105,0.0073,0.0062,0.0055,0.0048,-0.005,-0.0056,-0.0079,-0.0092,-0.0127,-0.0128,-0.0014,-0.0011,0.0324,0,0,0,0.0128,0.0146,0.0108,0.0122,0.0064,0.0007,0.0054,-0.0049,-0.0061,-0.0092,-0.0127,-0.0129,-0.0017,-0.0013,0.031,0.0534,0,0,0,0.015,0.0148,0.0144,0.0124,0.0093,0.0008,-0.0005,-0.0053,-0.0068,-0.0125,-0.0129,-0.0018,-0.0014,0.0298,0.0509,0.0687,0,0,0,0.0169,0.0211,0.0145,0.0188,0.0094,0.0125,-0.0005,-0.0019,-0.0054,-0.0127,-0.0016,-0.0012,0.0294,0.0494,0.0672,0.0739,0.0814,0,0,0.0243,0.0221,0.0248,0.0188,0.0276,0.0135,0.0264,0.0144,0.002,0.0006,0.0009,0.0315,0.0508,0.0684,0.1021,0.1088,0,0,0,0.0285,0.0324,0.0329,0.0362,0.034,0.0445,0.03,0.0295,0.0314,0.0026,0.032,0.0433,0.0532,0.054,0.0594,0.0247,0.0011,0.0011,0.001,0.0434,0.0438,0.0562,0.0598,0.0633,0.0645,0.0736,0.0716,0.0502,0.0592,0.0707,0.1085,0.1097,0.1138,0.078,0.0665,0.0666,0.0667,0.0668,0.0657,0.0797,0.0814,0.0952,0.1038,0.1149,0.1217,0.115,0.1289,0.1051,0.1127,0.0897,0.1217,0.0813,0.0689,0.0686,0.0683,0.0681,0.0679,0.0854,0.0954,0.1014,0.1242,0.1472,0.1519,0.1807,0.1772,0.1661,0.1777,0.1667,0.166,0.1301,0.1759,0.1761,0.1762,0.1764,0.1765,0.1766,0.1095,0.1171,0.1353,0.1561,0.1722,0.1974,0.2165,0.2263,0.2258,0.2111,0.2107,0.1414,0.1417,0.137,0.1795,0.179,0.1786,0.1783,0.1782,0.1412,0.1406,0.1649,0.181,0.2161,0.2472,0.2616,0.2796,0.283,0.2838,0.2036,0.2246,0.2149,0.21,0.2068,0.2649,0.2649,0.2649,0.2649,0.16,0.1626,0.1901,0.2135,0.2464,0.2704,0.3121,0.3224,0.2794,0.2465,0.2197,0.1887,0.1867,0.1729,0.1688,0.1636,0.2094,0.2093,0.2091,0.1795,0.1834,0.2032,0.2215,0.2577,0.2937,0.3328,0.3545,0.2754,0.2024,0.1718,0.1742,0.1223,0.1219,0.0929,0.0901,0.0786,0,0]}],[{"header":{"parameterUnit":"m.s-1","parameterCategory":2,"la1":30.2992,"la2":30.254,"lo1":-89.0895,"lo2":-89.0443,"dy":0.0025,"dx":0.0025,"nx":19,"ny":19,"refTime":"2026-05-17T03:00:00:Z","depth":"2","parameterNumber":2,"parameterNumberName":"U-component_of_CURRENTS"},"data":[0,0,0,0.3126,0.3131,0.3291,0.3292,0.3406,0.3407,0,0,0,0,0,0,0,0,0,0,0,0.3055,0.3057,0.3126,0.3132,0.3291,0.3292,0.3406,0.3407,0,0,0,0,0,0,0,0,0,0,0,0.3055,0.3057,0.3059,0.3132,0.3291,0.3292,0.3405,0.3298,0,0,0,0,0,0,0,0,0,0,0.3149,0.3102,0.3056,0.3059,0.3134,0.3291,0.3292,0.3293,0.3304,0.332,0,0.3369,0,0.3416,0.3416,0.3417,0,0,0,0.3092,0.3092,0.3157,0.3059,0.3136,0.3291,0.3208,0.33,0.3312,0.3334,0.3372,0.3377,0.3418,0.3417,0.3418,0.3633,0.3634,0,0,0.3083,0.3057,0.3149,0.3166,0.321,0.3203,0.3214,0.3308,0.332,0.3372,0.3381,0.342,0.3418,0.3419,0.3631,0.3633,0,0,0,0.3085,0.3051,0.3114,0.316,0.3211,0.3209,0.3221,0.3315,0.3344,0.3382,0.3421,0.3419,0.342,0.363,0.3632,0.3811,0,0,0,0.3077,0.3056,0.311,0.3092,0.321,0.3278,0.3225,0.3336,0.3349,0.342,0.3419,0.3422,0.3628,0.3631,0.3803,0.394,0,0,0,0.3042,0.3051,0.3084,0.3091,0.3183,0.3278,0.3309,0.3339,0.3375,0.3417,0.3422,0.3627,0.3631,0.3796,0.3926,0.3995,0,0,0,0.2987,0.3032,0.3084,0.3139,0.3182,0.3297,0.3309,0.3381,0.3418,0.3419,0.3629,0.3632,0.3794,0.3917,0.3987,0.3726,0.3743,0,0,0.3004,0.3033,0.3062,0.3113,0.3253,0.327,0.3423,0.3475,0.3475,0.358,0.3586,0.3806,0.3925,0.3994,0.3908,0.3919,0,0,0,0.3039,0.309,0.3126,0.3233,0.3312,0.3471,0.351,0.3578,0.3715,0.3526,0.3819,0.3891,0.3927,0.3752,0.3763,0.3647,0.3646,0.3646,0.3646,0.3049,0.3122,0.3218,0.334,0.3436,0.3618,0.3762,0.3879,0.3806,0.3915,0.4044,0.4241,0.4057,0.4061,0.402,0.4021,0.4021,0.4022,0.4022,0.312,0.3205,0.3326,0.3457,0.3645,0.38,0.4064,0.4119,0.4346,0.4239,0.4262,0.3961,0.4082,0.4037,0.4034,0.4032,0.4031,0.403,0.4029,0.3135,0.3206,0.329,0.3526,0.3745,0.3947,0.4244,0.4431,0.4538,0.4652,0.4351,0.4342,0.4349,0.4599,0.46,0.4601,0.4602,0.4602,0.4603,0.3151,0.3246,0.3377,0.3586,0.3722,0.3978,0.4339,0.45,0.4582,0.4576,0.457,0.4435,0.4417,0.4382,0.4618,0.4615,0.4613,0.4612,0.4611,0.3281,0.3261,0.3406,0.3531,0.3779,0.3767,0.4155,0.4288,0.4495,0.4455,0.4501,0.4498,0.4415,0.4399,0.4363,0.4581,0.4581,0.4581,0.4581,0.3316,0.3337,0.3394,0.3484,0.3615,0.3659,0.3593,0.3722,0.4002,0.4097,0.4118,0.389,0.3902,0.3777,0.3776,0.3721,0.3773,0.3771,0.377,0.3422,0.3356,0.3341,0.3341,0.3434,0.3392,0.3084,0.3005,0.3352,0.3738,0.3972,0.4528,0.4238,0.424,0.4074,0.4063,0.3985,0,0]},{"header":{"parameterUnit":"m.s-1","parameterCategory":2,"la1":30.2992,"la2":30.254,"lo1":-89.0895,"lo2":-89.0443,"dy":0.0025,"dx":0.0025,"nx":19,"ny":19,"refTime":"2026-05-17T03:00:00:Z","depth":"2","parameterNumber":3,"parameterNumberName":"V-component_of_CURRENTS"},"data":[0,0,0,-0.004,-0.0041,-0.0123,-0.0123,-0.0262,-0.0263,0,0,0,0,0,0,0,0,0,0,0,-0.0011,-0.0011,-0.004,-0.0041,-0.0123,-0.0124,-0.0262,-0.0263,0,0,0,0,0,0,0,0,0,0,0,-0.0011,-0.0011,-0.0011,-0.0042,-0.0123,-0.0124,-0.0261,-0.0196,0,0,0,0,0,0,0,0,0,0,-0.0114,-0.0075,-0.0011,-0.0011,-0.0042,-0.0123,-0.0124,-0.0192,-0.02,-0.0229,0,-0.0228,0,-0.0242,-0.0271,-0.0272,0,0,0,-0.0059,-0.0068,-0.0088,-0.0011,-0.0042,-0.0122,-0.0091,-0.0196,-0.0205,-0.0239,-0.023,-0.0235,-0.0245,-0.0272,-0.0273,-0.0274,-0.0273,0,0,-0.0055,-0.0034,-0.0082,-0.0092,-0.0047,-0.0088,-0.0093,-0.0201,-0.0205,-0.023,-0.0238,-0.0247,-0.0273,-0.0274,-0.0275,-0.0274,0,0,0,-0.003,-0.0031,-0.0048,-0.0087,-0.0095,-0.009,-0.0096,-0.0201,-0.0205,-0.024,-0.0248,-0.0274,-0.0275,-0.0276,-0.0275,-0.0097,0,0,0,-0.0028,-0.0015,-0.0045,-0.0035,-0.0092,-0.0144,-0.0093,-0.0198,-0.021,-0.0248,-0.0274,-0.0276,-0.0277,-0.0275,-0.0104,0.0049,0,0,0,-0.001,-0.0013,-0.0017,-0.0033,-0.006,-0.0142,-0.0154,-0.0201,-0.0215,-0.0272,-0.0277,-0.0278,-0.0276,-0.0111,0.0036,0.0055,0,0,0,0.0005,0.0031,-0.0016,0.0009,-0.0059,-0.0052,-0.0153,-0.0177,-0.0214,-0.0274,-0.0277,-0.0275,-0.0113,0.0027,0.0048,0.0034,0.0066,0,0,0.0053,0.0037,0.0054,0.0011,0.0057,-0.0044,0.0005,-0.0099,-0.0191,-0.025,-0.0251,-0.0102,0.0035,0.0053,0.016,0.0188,0,0,0,0.0079,0.0099,0.0101,0.0113,0.0092,0.0115,0.0007,-0.0025,-0.0072,-0.0201,-0.0108,-0.0025,-0.0021,-0.0044,-0.0022,-0.0264,-0.0265,-0.0265,-0.0265,0.0166,0.0167,0.0223,0.0229,0.0239,0.0216,0.0228,0.0166,0.0034,0.005,0.0112,0.0253,0.0231,0.0247,0.0061,0.0062,0.0062,0.0063,0.0063,0.0279,0.0318,0.0338,0.0407,0.0428,0.0469,0.0452,0.0394,0.0398,0.0281,0.0272,0.0139,0.0282,0.0077,0.0075,0.0073,0.0071,0.007,0.0069,0.0353,0.0376,0.0434,0.0554,0.063,0.0639,0.0753,0.0726,0.0604,0.0637,0.0494,0.0489,0.0362,0.0577,0.0578,0.0578,0.0579,0.058,0.058,0.0405,0.0461,0.0527,0.0675,0.0713,0.0843,0.0928,0.0935,0.0854,0.0744,0.074,0.0425,0.0409,0.039,0.0592,0.059,0.0589,0.0588,0.0587,0.0432,0.0457,0.0566,0.0621,0.0762,0.0987,0.1028,0.1113,0.1042,0.0999,0.0748,0.074,0.0677,0.0655,0.0641,0.0897,0.0897,0.0897,0.0897,0.0386,0.0434,0.0488,0.0575,0.076,0.1001,0.1228,0.1245,0.1101,0.0968,0.0965,0.0848,0.0833,0.077,0.0746,0.0728,0.1008,0.1009,0.1009,0.0315,0.0357,0.0369,0.0538,0.0739,0.1077,0.1458,0.1514,0.1189,0.1014,0.0995,0.0902,0.0713,0.0698,0.0575,0.0547,0.0508,0,0]}],[{"header":{"parameterUnit":"m.s-1","parameterCategory":2,"la1":30.2992,"la2":30.254,"lo1":-89.0895,"lo2":-89.0443,"dy":0.0025,"dx":0.0025,"nx":19,"ny":19,"refTime":"2026-05-17T03:00:00:Z","depth":"4","parameterNumber":2,"parameterNumberName":"U-component_of_CURRENTS"},"data":[0,0,0,0.1754,0.1759,0.2,0.2001,0.2249,0.2251,0,0,0,0,0,0,0,0,0,0,0,0.1674,0.1675,0.1754,0.1759,0.2,0.2001,0.2249,0.2251,0,0,0,0,0,0,0,0,0,0,0,0.1673,0.1675,0.1677,0.176,0.1999,0.2001,0.2248,0.2086,0,0,0,0,0,0,0,0,0,0,0.1862,0.1806,0.1675,0.1677,0.1761,0.1999,0.2001,0.2079,0.2096,0.2116,0,0.215,0,0.2196,0.2264,0.2265,0,0,0,0.1779,0.1792,0.1836,0.1677,0.1763,0.1999,0.1897,0.2089,0.2108,0.2138,0.2154,0.2164,0.22,0.2265,0.2266,0.2495,0.2496,0,0,0.1766,0.1741,0.1823,0.1848,0.1821,0.1889,0.1904,0.2102,0.213,0.2155,0.217,0.2204,0.2267,0.2268,0.2494,0.2496,0,0,0,0.1714,0.1732,0.1774,0.1837,0.188,0.1895,0.1913,0.2122,0.213,0.2173,0.2207,0.2268,0.227,0.2493,0.2495,0.2598,0,0,0,0.1707,0.17,0.1767,0.1759,0.1876,0.2017,0.1928,0.2117,0.2141,0.2205,0.2268,0.2272,0.2492,0.2494,0.2592,0.2591,0,0,0,0.1664,0.1697,0.1717,0.1756,0.1849,0.2014,0.2037,0.2124,0.216,0.2265,0.2273,0.2491,0.2494,0.2588,0.2584,0.264,0,0,0,0.1639,0.1674,0.1718,0.1779,0.1846,0.1986,0.2036,0.2172,0.2264,0.2269,0.2492,0.2495,0.2586,0.258,0.2636,0.2283,0,0,0,0.1658,0.1676,0.171,0.1754,0.1871,0.1954,0.2121,0.2262,0.2306,0.2423,0.243,0.2594,0.2584,0.2639,0.2428,0,0,0,0,0.17,0.1727,0.177,0.1856,0.1958,0.2102,0.224,0.2327,0.2503,0.2369,0.2614,0.2604,0.2636,0.242,0.2506,0.2506,0.2506,0.2506,0.2505,0.1682,0.1746,0.1828,0.1931,0.2039,0.2229,0.2359,0.2504,0.2554,0.266,0.2705,0.2833,0.2612,0.2748,0.2749,0.2749,0.2749,0.275,0.275,0.1692,0.1723,0.1866,0.198,0.2141,0.231,0.253,0.2621,0.2821,0.2823,0.2851,0.2564,0.2761,0.2759,0.2757,0.2756,0.2755,0.2754,0.2754,0.1647,0.1667,0.1786,0.1953,0.2159,0.2368,0.2532,0.2716,0.2886,0.2952,0.2731,0.2891,0.2861,0.2998,0.2999,0.2999,0.2999,0.2999,0.3,0.1521,0.1631,0.1693,0.1907,0.2017,0.2242,0.2535,0.2655,0.2852,0.2777,0.2991,0.2915,0.2907,0.2875,0.3004,0.3003,0.3003,0.3002,0.3002,0.1358,0.1433,0.1505,0.1594,0.1829,0.197,0.2286,0.2494,0.2588,0.2619,0.2677,0.2692,0.2609,0.2608,0.2562,0.2603,0.2599,0.2595,0,0.1196,0.1253,0.1292,0.136,0.1492,0.1774,0.1869,0.2107,0.2329,0.2243,0.2583,0.2638,0.2649,0.2545,0.2538,0.2475,0,0,0,0.1016,0.1097,0.1051,0.1211,0.1316,0.161,0.1907,0.1917,0.2294,0.2327,0.2492,0.2519,0.279,0.3017,0.2925,0.2915,0.2858,0,0]},{"header":{"parameterUnit":"m.s-1","parameterCategory":2,"la1":30.2992,"la2":30.254,"lo1":-89.0895,"lo2":-89.0443,"dy":0.0025,"dx":0.0025,"nx":19,"ny":19,"refTime":"2026-05-17T03:00:00:Z","depth":"4","parameterNumber":3,"parameterNumberName":"V-component_of_CURRENTS"},"data":[0,0,0,0.0032,0.0031,-0.0032,-0.0032,-0.0156,-0.0157,0,0,0,0,0,0,0,0,0,0,0,0.0053,0.0053,0.0032,0.0031,-0.0032,-0.0032,-0.0156,-0.0157,0,0,0,0,0,0,0,0,0,0,0,0.0053,0.0053,0.0053,0.003,-0.0032,-0.0032,-0.0156,-0.0101,0,0,0,0,0,0,0,0,0,0,-0.0037,-0.0007,0.0053,0.0053,0.003,-0.0031,-0.0032,-0.0099,-0.0105,-0.0136,0,-0.0134,0,-0.0143,-0.0165,-0.0166,0,0,0,0.0015,-0.0001,-0.0013,0.0053,0.003,-0.0031,-0.0008,-0.0102,-0.0109,-0.0144,-0.0136,-0.014,-0.0145,-0.0166,-0.0167,-0.0228,-0.0228,0,0,0.0018,0.0032,-0.0008,-0.0017,0.0027,-0.0006,-0.001,-0.0106,-0.0112,-0.0136,-0.0143,-0.0147,-0.0167,-0.0168,-0.0228,-0.0228,0,0,0,0.0039,0.0034,0.0025,-0.0012,-0.0017,-0.0007,-0.0012,-0.0108,-0.0109,-0.0144,-0.0149,-0.0167,-0.0169,-0.0228,-0.0228,-0.0169,0,0,0,0.004,0.0047,0.0027,0.0032,-0.0015,-0.0057,-0.0011,-0.0102,-0.0113,-0.0148,-0.0167,-0.017,-0.0229,-0.0228,-0.0171,-0.0147,0,0,0,0.0054,0.0048,0.0047,0.0034,0.0014,-0.0056,-0.0063,-0.0105,-0.0116,-0.0166,-0.017,-0.0229,-0.0228,-0.0173,-0.015,-0.0144,0,0,0,0.006,0.0075,0.0047,0.0062,0.0015,0.0004,-0.0063,-0.0087,-0.0122,-0.0168,-0.0229,-0.0228,-0.0173,-0.0152,-0.0145,-0.0009,0,0,0,0.0086,0.0078,0.0089,0.0063,0.0073,0.001,-0.0001,-0.0077,-0.0129,-0.0204,-0.0205,-0.017,-0.015,-0.0144,0.0019,0,0,0,0,0.0102,0.011,0.011,0.0106,0.0085,0.005,-0.0017,-0.0058,-0.0124,-0.0145,-0.0177,-0.0166,-0.0164,-0.009,-0.0226,-0.0226,-0.0226,-0.0226,-0.0226,0.0137,0.0135,0.0155,0.0146,0.0134,0.0072,0.0031,-0.0042,-0.0088,-0.0106,-0.0122,-0.0083,-0.0001,-0.0128,-0.0127,-0.0127,-0.0127,-0.0127,-0.0127,0.0175,0.0181,0.0185,0.0204,0.0171,0.0153,0.0063,0.0018,-0.0048,-0.0082,-0.0083,-0.0037,-0.0121,-0.0122,-0.0123,-0.0124,-0.0124,-0.0124,-0.0125,0.0179,0.0184,0.0209,0.0241,0.0247,0.0205,0.0217,0.0114,0.001,0.0,0.0067,-0.0052,-0.0053,0.0005,0.0005,0.0005,0.0005,0.0005,0.0005,0.0165,0.0194,0.0254,0.0277,0.0331,0.0359,0.0304,0.0284,0.0165,0.0145,0.0022,-0.0039,-0.0044,-0.0047,0.0008,0.0007,0.0007,0.0007,0.0007,0.018,0.0203,0.0314,0.0382,0.051,0.0532,0.0489,0.0439,0.0412,0.0354,0.0208,0.0197,0.0182,0.0172,0.0176,0.0298,0.0301,0.0302,0,0.0206,0.021,0.042,0.057,0.0688,0.0666,0.0716,0.0667,0.0479,0.0468,0.0379,0.0216,0.0208,0.0192,0.0186,0.0194,0,0,0,0.026,0.0327,0.0499,0.0645,0.0788,0.0789,0.0741,0.0717,0.0502,0.0518,0.0352,0.0339,0.0237,0.0015,-0.0035,-0.004,-0.0048,0,0]}]]